weather.gov     
National Weather Service

Terminal Aerodrome Forecast
NWS Homepage
This page is being discontinued on March 12, 2014.
The same data is available at this site. Please update your bookmarks.
Thank you, and we apologize for the inconvenience.
Please send an email to SR-SRH.Webmaster@noaa.gov with any concerns.


Current Version
Previous Version:    01  02  03  04  05  06  07  08  09  10  11  12  13  14  
[Printable]
397
FTUS41 KCAR 260132 AAA
TAFCAR
TAF AMD
KCAR 260132Z 2602/2624 29012G20KT P6SM SCT035
     FM260800 29009KT P6SM FEW150
     FM261500 30005KT P6SM FEW150
     FM261600 30005KT P6SM FEW050 BKN250
     FM262000 01004KT P6SM SCT100 OVC200=




397
FTUS41 KCAR 260132 AAA
TAFCAR
TAF AMD
KCAR 260132Z 2602/2624 29012G20KT P6SM SCT035
     FM260800 29009KT P6SM FEW150
     FM261500 30005KT P6SM FEW150
     FM261600 30005KT P6SM FEW050 BKN250
     FM262000 01004KT P6SM SCT100 OVC200=


U.S. Dept. of Commerce
NOAA National Weather Service
1325 East West Highway
Silver Spring, MD 20910
E-mail: w-nws.webmaster@noaa.gov
Page last modified: May 16, 2007
NATIONAL WEATHER SERVICE: for Safety, for Work, for Fun - FOR LIFE